CW4869 Weather Reports


Display with metric or nautical units.
time (UTC)temp
F
wind
direction
speed
MPH
gust
MPH
rain 1hr
in
rain 24hr
in
rain mn
in
humidity
%
barometer
mb
20260902094529 77 248 10.0 13.0 0.00 0.00 0.00 93 1011.2
20260902094041 77 241 11.0 13.0 0.00 0.00 0.00 93 1011.3
20260902093556 77 230 10.0 12.0 0.00 0.00 0.00 93 1011.2
20260902093108 77 227 9.0 15.0 0.00 0.00 0.00 93 1011.2
20260902092539 77 233 11.0 15.0 0.00 0.00 0.00 94 1011.1
20260902092032 77 230 11.0 15.0 0.00 0.00 0.00 94 1011.2
20260902091537 77 228 11.0 15.0 0.00 0.00 0.00 94 1011.2
20260902091028 77 229 11.0 14.0 0.00 0.00 0.00 94 1011.2
20260902090537 77 232 8.0 11.0 0.00 0.00 0.00 94 1011.1
20260902090029 77 222 7.0 10.0 0.00 0.00 0.00 94 1010.9
20260902085038 77 228 7.0 11.0 0.00 0.00 0.00 93 1011.0
20260902084525 77 227 7.0 12.0 0.00 0.00 0.00 93 1011.0
20260902084058 77 230 10.0 13.0 0.00 0.00 0.00 94 1011.0
20260902083534 77 233 10.0 14.0 0.00 0.00 0.00 94 1011.0
20260902083027 77 233 11.0 14.0 0.00 0.00 0.00 93 1011.0
20260902082531 77 236 11.0 15.0 0.00 0.00 0.00 93 1011.0
20260902082024 77 238 12.0 16.0 0.00 0.00 0.00 94 1011.1
20260902081531 77 245 12.0 15.0 0.00 0.00 0.00 94 1011.1
20260902081024 77 241 11.0 14.0 0.00 0.00 0.00 94 1011.1
20260902080530 77 237 11.0 16.0 0.00 0.00 0.00 94 1011.1
20260902080024 77 234 12.0 17.0 0.00 0.00 0.00 94 1011.1
20260902075534 77 229 13.0 16.0 0.00 0.00 0.00 94 1011.1
20260902075024 77 232 13.0 16.0 0.00 0.00 0.00 94 1011.0
20260902074532 77 227 12.0 14.0 0.00 0.00 0.00 94 1011.1
20260902074043 77 238 10.0 12.0 0.00 0.00 0.00 94 1011.0
20260902073529 77 229 9.0 11.0 0.00 0.00 0.00 94 1010.9
20260902073028 77 239 8.0 11.0 0.00 0.00 0.00 94 1010.9
20260902072537 77 223 7.0 11.0 0.00 0.00 0.00 94 1011.0
20260902072031 77 223 8.0 11.0 0.00 0.00 0.00 94 1010.9
20260902071535 77 234 8.0 11.0 0.00 0.00 0.00 94 1010.8
20260902071053 78 225 9.0 12.0 0.00 0.00 0.00 94 1010.8
20260902070523 78 227 8.0 11.0 0.00 0.00 0.00 94 1010.9
20260902070033 78 238 8.0 11.0 0.00 0.00 0.00 94 1011.0
20260902065523 78 214 7.0 9.0 0.00 0.00 0.00 94 1010.9
20260902065034 78 223 7.0 9.0 0.00 0.00 0.00 94 1010.8
20260902064523 78 223 7.0 8.0 0.00 0.00 0.00 94 1010.8
20260902064119 78 226 7.0 10.0 0.00 0.00 0.00 93 1010.8
20260902063531 78 219 7.0 10.0 0.00 0.00 0.00 93 1010.9
20260902063043 78 222 7.0 9.0 0.00 0.00 0.00 93 1010.7
20260902062552 78 208 7.0 12.0 0.00 0.00 0.00 93 1010.8
20260902062042 78 229 9.0 12.0 0.00 0.00 0.00 93 1011.0
20260902061532 78 232 10.0 13.0 0.00 0.00 0.00 93 1011.1
20260902061025 78 241 10.0 13.0 0.00 0.00 0.00 93 1011.2
20260902060539 78 236 10.0 13.0 0.00 0.00 0.00 93 1011.3
20260902060059 78 248 11.0 13.0 0.00 0.00 0.00 93 1011.4
20260902055523 78 249 9.0 10.0 0.00 0.00 0.00 92 1011.4
20260902055036 78 244 8.0 10.0 0.00 0.00 0.00 92 1011.3
20260902054525 78 251 8.0 11.0 0.00 0.00 0.00 92 1011.3
20260902054038 78 245 8.0 12.0 0.00 0.00 0.00 92 1011.3
20260902053522 78 243 9.0 13.0 0.00 0.00 0.00 92 1011.3
20260902053027 79 243 10.0 13.0 0.00 0.00 0.00 92 1011.3
20260902052536 79 243 10.0 14.0 0.00 0.00 0.00 92 1011.3
20260902052042 79 248 10.0 14.0 0.00 0.00 0.00 92 1011.4
20260902051528 79 254 11.0 14.0 0.00 0.00 0.00 92 1011.4
20260902051042 79 237 12.0 14.0 0.00 0.00 0.00 92 1011.4
20260902050529 79 247 12.0 16.0 0.00 0.00 0.00 92 1011.4
20260902050100 79 248 13.0 15.0 0.00 0.00 0.00 92 1011.4
20260902045531 79 241 12.0 16.0 0.00 0.00 0.00 92 1011.3
20260902045037 79 234 13.0 16.0 0.00 0.00 0.00 91 1011.3
20260902044526 79 251 13.0 18.0 0.00 0.00 0.00 91 1011.4
20260902044029 79 247 14.0 18.0 0.00 0.00 0.00 91 1011.4
20260902043532 79 247 15.0 17.0 0.00 0.00 0.00 91 1011.4
20260902043043 79 237 13.0 17.0 0.00 0.00 0.00 91 1011.2
20260902042615 80 246 14.0 18.0 0.00 0.00 0.00 90 1011.1
20260902042058 80 245 15.0 20.0 0.00 0.00 0.00 90 1011.0
20260902041525 80 245 16.0 20.0 0.00 0.00 0.00 90 1011.0
20260902041052 80 242 15.0 19.0 0.00 0.00 0.00 90 1011.0
20260902040544 80 235 16.0 22.0 0.00 0.00 0.00 90 1011.0
20260902040035 80 249 17.0 22.0 0.00 0.00 0.00 89 1011.1
20260902035536 80 241 16.0 21.0 0.00 0.00 0.00 89 1011.0
20260902034524 80 237 17.0 20.0 0.00 0.00 0.00 89 1011.1
20260902034102 81 240 16.0 19.0 0.00 0.00 0.00 89 1011.1
20260902033527 81 241 14.0 16.0 0.00 0.00 0.00 89 1011.1
20260902033040 81 238 12.0 16.0 0.00 0.00 0.00 89 1010.8
20260902032529 81 227 13.0 16.0 0.00 0.00 0.00 89 1010.7
20260902032041 81 236 13.0 15.0 0.00 0.00 0.00 89 1010.8
20260902031057 81 245 11.0 14.0 0.00 0.00 0.00 90 1010.9
20260902030522 81 241 11.0 14.0 0.00 0.00 0.00 90 1010.9
20260902030034 81 245 11.0 15.0 0.00 0.00 0.00 90 1010.9
20260902025523 81 234 11.0 15.0 0.00 0.00 0.00 90 1010.9
20260902025103 81 233 13.0 15.0 0.00 0.00 0.00 90 1011.0
20260902024529 80 241 11.0 14.0 0.00 0.00 0.00 91 1011.0
20260902024024 80 236 10.0 13.0 0.00 0.00 0.00 91 1010.9
20260902023534 80 231 11.0 13.0 0.00 0.00 0.00 92 1010.9
20260902023027 80 230 10.0 14.0 0.00 0.00 0.00 92 1010.9
20260902022617 80 235 10.0 14.0 0.00 0.00 0.00 92 1011.0
20260902022058 80 232 6.0 11.0 0.00 0.00 0.00 93 1010.9
20260902021540 80 207 8.0 11.0 0.00 0.00 0.00 93 1010.9
20260902021057 80 206 7.0 9.0 0.00 0.00 0.00 93 1010.9
20260902020532 80 216 6.0 8.0 0.00 0.00 0.00 93 1011.0
20260902020041 80 191 3.0 5.0 0.00 0.00 0.00 92 1011.0
20260902015538 80 174 4.0 6.0 0.00 0.00 0.00 92 1010.9
20260902015031 81 143 5.0 7.0 0.00 0.00 0.00 92 1011.0
20260902014535 81 146 5.0 9.0 0.00 0.00 0.00 92 1011.0
20260902014028 81 126 6.0 9.0 0.00 0.00 0.00 92 1010.9
20260902013539 81 115 6.0 9.0 0.00 0.00 0.00 92 1010.9
20260902013029 81 117 8.0 10.0 0.00 0.00 0.00 91 1010.9
20260902012535 81 105 9.0 11.0 0.00 0.00 0.00 91 1010.9
20260902012052 81 112 8.0 11.0 0.00 0.00 0.00 91 1010.8
20260902011538 81 105 9.0 11.0 0.00 0.00 0.00 91 1010.9
20260902011026 82 107 8.0 10.0 0.00 0.00 0.00 91 1010.9
20260902010534 82 101 7.0 10.0 0.00 0.00 0.00 90 1010.9
20260902010029 82 110 7.0 10.0 0.00 0.00 0.00 91 1010.8
20260902005537 82 107 8.0 10.0 0.00 0.00 0.00 90 1010.8
20260902005044 82 114 7.0 9.0 0.00 0.00 0.00 90 1010.7
20260902004529 82 108 6.0 8.0 0.00 0.00 0.00 89 1010.6
20260902004042 82 105 5.0 6.0 0.00 0.00 0.00 88 1010.6
20260902003533 82 122 4.0 6.0 0.00 0.00 0.00 89 1010.7
20260902003048 82 83 3.0 6.0 0.00 0.00 0.00 89 1010.7
20260902002535 82 79 2.0 4.0 0.00 0.00 0.00 88 1010.6
20260902002027 82 89 2.0 4.0 0.00 0.00 0.00 88 1010.5
20260902001534 82 108 2.0 3.0 0.00 0.00 0.00 88 1010.6
20260902001109 82 72 1.0 3.0 0.00 0.00 0.00 88 1010.6
20260902000525 82 122 1.0 3.0 0.00 0.00 0.00 87 1010.8
20260902000034 82 107 2.0 3.0 0.00 0.00 0.00 87 1010.7
20260901235548 83 113 2.0 3.0 0.00 0.00 0.00 87 1010.8
20260901235035 83 72 1.0 3.0 0.00 0.00 0.00 87 1010.8
20260901234523 83 113 2.0 3.0 0.00 0.00 0.00 87 1010.7
20260901234030 83 108 0.0 2.0 0.00 0.00 0.00 87 1010.7
20260901233024 83 28 1.0 2.0 0.00 0.00 0.00 86 1010.9
20260901232528 83 28 1.0 2.0 0.00 0.00 0.00 86 1010.9
20260901232042 83 1 0.0 1.0 0.00 0.00 0.00 85 1010.9
20260901231531 84 1 0.0 2.0 0.00 0.00 0.00 85 1011.0
20260901231041 84 1 0.0 1.0 0.00 0.00 0.00 84 1010.9
20260901230531 84 20 0.0 2.0 0.00 0.00 0.00 84 1011.0
20260901230041 84 63 0.0 2.0 0.00 0.00 0.00 84 1011.1
20260901225530 85 46 1.0 2.0 0.00 0.00 0.00 84 1011.1
20260901225038 85 35 1.0 3.0 0.00 0.00 0.00 84 1011.1
20260901224552 85 1 1.0 3.0 0.00 0.00 0.00 84 1011.2
20260901224029 86 46 0.0 2.0 0.00 0.00 0.00 83 1011.1
20260901223535 86 13 0.0 2.0 0.00 0.00 0.00 83 1011.1
20260901223029 86 1 1.0 2.0 0.00 0.00 0.00 83 1011.1
20260901222539 86 46 0.0 2.0 0.00 0.00 0.00 83 1011.1
20260901222033 86 46 0.0 2.0 0.00 0.00 0.00 82 1011.1
20260901221538 86 1 1.0 2.0 0.00 0.00 0.00 81 1011.1
20260901221029 86 108 1.0 3.0 0.00 0.00 0.00 81 1011.1
20260901220537 86 122 2.0 3.0 0.00 0.00 0.00 81 1011.1
20260901220026 86 108 1.0 2.0 0.00 0.00 0.00 81 1011.1
20260901215533 86 46 0.0 1.0 0.00 0.00 0.00 81 1011.1
20260901215033 86 314 0.0 2.0 0.00 0.00 0.00 81 1011.1
20260901214536 86 223 1.0 3.0 0.00 0.00 0.00 81 1011.1
20260901214026 86 241 2.0 3.0 0.00 0.00 0.00 82 1011.1
20260901213036 86 248 3.0 4.0 0.00 0.00 0.00 81 1011.1
20260901212525 86 241 3.0 4.0 0.00 0.00 0.00 81 1011.1
20260901212038 86 245 3.0 5.0 0.00 0.00 0.00 82 1011.1
20260901211525 86 259 4.0 6.0 0.00 0.00 0.00 82 1011.1
20260901211033 86 262 4.0 6.0 0.00 0.00 0.00 82 1011.1
20260901210555 86 256 5.0 6.0 0.00 0.00 0.00 82 1011.1
20260901205546 86 259 5.0 7.0 0.00 0.00 0.00 82 1011.2
20260901205040 86 259 5.0 7.0 0.00 0.00 0.00 82 1011.3
20260901204615 86 259 5.0 7.0 0.00 0.00 0.00 82 1011.3
20260901204101 86 259 6.0 7.0 0.00 0.00 0.00 81 1011.3
20260901203525 85 261 5.0 8.0 0.00 0.00 0.00 82 1011.3
20260901203103 85 278 6.0 8.0 0.00 0.00 0.00 84 1011.3
20260901202543 85 258 6.0 8.0 0.00 0.00 0.00 84 1011.3
20260901202057 84 260 7.0 8.0 0.00 0.00 0.00 84 1011.5
20260901201546 84 256 6.0 7.0 0.00 0.00 0.00 85 1011.4
20260901201032 84 255 5.0 7.0 0.00 0.00 0.00 85 1011.4
20260901200540 84 244 4.0 5.0 0.00 0.00 0.00 86 1011.3
20260901200033 84 238 3.0 4.0 0.00 0.00 0.00 85 1011.4
20260901195601 84 234 3.0 4.0 0.00 0.00 0.00 85 1011.4
20260901195042 84 261 3.0 4.0 0.00 0.00 0.00 86 1011.5
20260901194531 83 239 3.0 4.0 0.00 0.00 0.00 85 1011.4
20260901194040 83 241 3.0 4.0 0.00 0.00 0.00 85 1011.4
20260901193540 83 250 2.0 4.0 0.00 0.00 0.00 86 1011.4
20260901193032 83 256 3.0 4.0 0.00 0.00 0.00 85 1011.5
20260901192537 83 248 3.0 4.0 0.00 0.00 0.00 85 1011.6
20260901192115 83 252 2.0 5.0 0.00 0.00 0.00 85 1011.6
20260901191529 83 247 3.0 5.0 0.00 0.00 0.00 84 1011.7
20260901191040 83 258 2.0 3.0 0.00 0.00 0.00 84 1011.8
20260901190547 83 259 2.0 3.0 0.00 0.00 0.00 84 1011.8
20260901190036 83 223 1.0 3.0 0.00 0.00 0.00 84 1011.8
20260901185535 83 250 1.0 2.0 0.00 0.01 0.00 85 1011.9
20260901185044 82 206 1.0 2.0 0.00 0.01 0.00 85 1011.9
20260901184035 82 223 0.0 2.0 0.00 0.01 0.00 86 1011.9
20260901183524 82 152 1.0 2.0 0.00 0.01 0.00 86 1012.0
20260901183037 82 145 1.0 2.0 0.00 0.01 0.00 86 1012.0
20260901182526 81 161 2.0 2.0 0.00 0.01 0.00 86 1012.0
20260901182036 82 152 2.0 3.0 0.00 0.01 0.00 86 1012.0
20260901181526 81 165 1.0 2.0 0.00 0.01 0.00 86 1012.0
20260901181038 81 179 1.0 3.0 0.00 0.01 0.00 86 1012.1
20260901180527 82 197 2.0 3.0 0.00 0.01 0.00 86 1012.1
20260901180036 82 157 2.0 3.0 0.00 0.01 0.00 86 1012.2
20260901175525 81 165 1.0 4.0 0.00 0.04 0.00 85 1012.2
20260901175102 81 140 2.0 4.0 0.00 0.04 0.00 87 1012.3
20260901174543 81 124 1.0 3.0 0.00 0.04 0.00 86 1012.4
20260901174037 80 152 0.0 2.0 0.00 0.04 0.00 86 1012.5
20260901173525 80 152 0.0 1.0 0.00 0.04 0.00 86 1012.6
20260901173103 80 223 0.0 2.0 0.00 0.04 0.00 87 1012.5
20260901172529 80 135 1.0 2.0 0.00 0.04 0.00 87 1012.5
20260901172040 80 234 1.0 3.0 0.00 0.04 0.00 90 1012.5
20260901171533 79 237 2.0 3.0 0.00 0.04 0.00 89 1012.5
20260901171039 80 223 1.0 2.0 0.00 0.04 0.00 90 1012.5
20260901170526 79 213 0.0 2.0 0.00 0.04 0.00 89 1012.6
20260901170035 79 216 1.0 3.0 0.00 0.04 0.00 90 1012.6
20260901165524 78 161 0.0 5.0 0.00 0.34 0.00 92 1012.6
20260901165056 78 244 3.0 5.0 0.00 0.34 0.00 92 1012.6
20260901164524 77 255 4.0 6.0 0.00 0.34 0.00 92 1012.6
20260901164037 77 246 5.0 6.0 0.00 0.34 0.00 92 1012.6
20260901163525 77 248 5.0 6.0 0.00 0.34 0.00 92 1012.7
20260901163118 77 250 6.0 6.0 0.00 0.34 0.00 91 1012.8
20260901162530 77 236 3.0 5.0 0.00 0.34 0.00 91 1012.8
20260901162102 77 227 3.0 4.0 0.00 0.34 0.00 92 1012.9
20260901161533 77 216 1.0 2.0 0.00 0.34 0.00 92 1013.0
20260901161026 77 223 2.0 3.0 0.00 0.34 0.00 92 1012.8
20260901160555 77 228 2.0 3.0 0.00 0.34 0.00 92 1013.0
20260901160052 76 236 2.0 3.0 0.00 0.34 0.00 93 1013.0
20260901154542 76 206 1.0 3.0 0.00 0.40 0.00 93 1012.7
20260901154028 76 223 2.0 4.0 0.00 0.40 0.00 94 1012.7
20260901153602 76 244 3.0 4.0 0.00 0.40 0.00 94 1012.8
20260901153032 76 227 3.0 4.0 0.00 0.40 0.00 94 1012.7
20260901152540 76 213 2.0 4.0 0.00 0.40 0.00 94 1012.7
20260901152042 75 223 2.0 4.0 0.00 0.40 0.00 94 1012.8
20260901151531 75 241 3.0 4.0 0.00 0.40 0.00 94 1012.9
20260901151035 75 197 3.0 5.0 0.00 0.40 0.00 95 1012.8
20260901150523 75 218 3.0 5.0 0.00 0.40 0.00 95 1012.8
20260901150033 75 215 2.0 4.0 0.00 0.40 0.00 95 1012.9
20260901145541 75 218 2.0 4.0 0.00 0.62 0.00 95 1012.8
20260901145029 75 232 3.0 3.0 0.00 0.62 0.00 95 1012.9
20260901144536 75 223 2.0 3.0 0.00 0.62 0.00 95 1012.8
20260901144029 75 232 2.0 3.0 0.00 0.62 0.00 95 1012.7
20260901143532 75 223 2.0 4.0 0.00 0.62 0.00 96 1012.7
20260901142527 74 227 3.0 4.0 0.00 0.62 0.00 96 1012.8
20260901142037 74 223 2.0 4.0 0.00 0.62 0.00 96 1012.7
20260901141524 74 237 3.0 4.0 0.00 0.62 0.00 96 1012.7
20260901141037 74 220 3.0 4.0 0.00 0.62 0.00 96 1012.7
20260901140527 74 239 3.0 4.0 0.00 0.62 0.00 96 1012.6
20260901140036 74 241 4.0 4.0 0.00 0.62 0.00 96 1012.6
20260901135525 74 256 3.0 4.0 0.00 0.64 0.00 96 1012.7
20260901135037 73 236 3.0 6.0 0.00 0.64 0.00 96 1012.7
20260901134545 73 250 4.0 6.0 0.00 0.64 0.00 96 1012.8
20260901133538 73 249 5.0 7.0 0.00 0.64 0.00 96 1012.8
20260901133046 73 243 6.0 7.0 0.00 0.64 0.00 96 1012.7
20260901132532 73 241 5.0 7.0 0.00 0.64 0.00 96 1012.7
20260901132035 73 243 5.0 8.0 0.00 0.64 0.00 96 1012.7
20260901131539 73 246 6.0 8.0 0.00 0.64 0.00 96 1012.8
20260901131055 73 249 6.0 7.0 0.00 0.64 0.00 96 1012.8
20260901130026 73 243 4.0 5.0 0.00 0.64 0.00 96 1012.7
20260901125536 73 238 4.0 5.0 0.00 0.64 0.00 96 1012.7
20260901125045 73 244 3.0 4.0 0.00 0.64 0.00 96 1012.6
20260901124536 73 234 3.0 4.0 0.00 0.64 0.00 96 1012.5
20260901124025 73 232 3.0 3.0 0.00 0.64 0.00 95 1012.5
20260901123535 73 254 2.0 3.0 0.00 0.64 0.00 95 1012.5
20260901123026 72 237 2.0 3.0 0.00 0.64 0.00 95 1012.4
20260901122528 72 231 2.0 4.0 0.00 0.64 0.00 95 1012.3
20260901122042 72 236 3.0 4.0 0.00 0.64 0.00 95 1012.2
20260901121526 72 228 3.0 4.0 0.00 0.64 0.00 95 1012.3
20260901121035 72 223 3.0 4.0 0.00 0.64 0.00 95 1012.3
20260901120525 72 245 3.0 4.0 0.00 0.64 0.00 95 1012.2
20260901120035 72 227 3.0 4.0 0.00 0.64 0.00 95 1012.2
20260901115540 72 223 3.0 4.0 0.00 0.64 0.00 95 1012.2
20260901115031 72 238 3.0 4.0 0.00 0.64 0.00 95 1012.1
20260901114539 72 269 3.0 4.0 0.00 0.64 0.00 95 1012.1
20260901114036 72 244 3.0 5.0 0.00 0.64 0.00 95 1012.1
20260901113526 72 254 3.0 5.0 0.00 0.64 0.00 95 1012.0
20260901113040 72 238 2.0 3.0 0.00 0.64 0.00 95 1011.9
20260901112524 72 89 1.0 6.0 0.00 0.64 0.00 95 1011.8
20260901112037 72 300 3.0 7.0 0.00 0.64 0.00 95 1011.7
20260901111525 72 255 5.0 8.0 0.00 0.64 0.00 95 1011.6
20260901111040 72 252 6.0 8.0 0.00 0.64 0.00 95 1011.6
20260901110535 72 250 7.0 10.0 0.00 0.64 0.00 95 1011.6
20260901110052 72 269 7.0 11.0 0.00 0.64 0.00 95 1011.6
20260901105540 72 253 8.0 11.0 0.00 0.67 0.00 95 1011.6
20260901105114 72 262 8.0 10.0 0.00 0.67 0.00 95 1011.5
20260901104526 72 257 8.0 11.0 0.00 0.67 0.00 95 1011.5
20260901104039 72 252 8.0 12.0 0.00 0.67 0.00 95 1011.4
20260901103524 72 257 8.0 12.0 0.00 0.67 0.00 95 1011.3
20260901103035 72 248 7.0 9.0 0.00 0.67 0.00 95 1011.4
20260901102524 72 264 8.0 10.0 0.00 0.67 0.00 95 1011.4
20260901102034 72 251 8.0 10.0 0.00 0.67 0.00 95 1011.4
20260901101057 73 247 8.0 10.0 0.00 0.67 0.00 94 1011.4
20260901100522 73 248 8.0 10.0 0.00 0.67 0.00 94 1011.4
20260901100034 72 248 8.0 10.0 0.00 0.67 0.00 94 1011.4
20260901095540 72 248 8.0 10.0 0.00 0.96 0.00 94 1011.4
20260901095031 73 244 7.0 9.0 0.00 0.96 0.00 94 1011.3